sat.trackr.live / text

‹ back to catalog

STARLINK-35127

NORAD 65639 · 2025-210T

PAYLOAD ACTIVE UNKNOWN

§ Identity

Operator
Country
US
Launch date
2025-09-18
Launch site
AFETR
Launch vehicle
Mass (kg)
RCS (m²)

Purposes: comms

External: N2YO · Heavens-Above · Gunter

§ Orbital elements

Epoch: 2026-05-25T03:49:02.178336Z

Period
93.85 min
Inclination
53.1585°
Eccentricity
0.0000749
Mean motion
15.34406257 rev/d
Perigee alt
462.2 km
Apogee alt
463.2 km
Semi-major
6,840.8 km
B*
7.0975e-4
RAAN
310.8398°
Arg perigee
65.3196°
Mean anomaly
294.7884°
Rev number
3,945

§ Raw data

STARLINK-351271 65639U 25210T   26145.15905299  .00023684  00000+0  70975-3 0  99902 65639  53.1585 310.8398 0000749  65.3196 294.7884 15.34406257 39450

JSON: /api/v1/satellites/65639 · /tle

For live sub-satellite position, see the globe view (requires WebGL).

§ Visibility from observer

Set your observer location to see the next 7 days of passes ≥ 10°. The values pass through the URL so the page stays shareable.

No JS? Fill the form by hand. The geolocation button needs JavaScript.